Time,TemperatureF,DewpointF,PressureIn,WindDirection,WindDirectionDegrees,WindSpeedMPH,WindSpeedGustMPH,Humidity,HourlyPrecipIn,Conditions,Clouds,dailyrainin,SoftwareType,DateUTC
2013-06-27 00:14:00,68.2,67.9,29.65,NE,45,2.7,-999.0,99,-99.99,,,0.00,Acu-Link.com,2013-06-27 04:14:00,
2013-06-27 00:29:00,68.2,67.9,29.65,ESE,112,0.0,-999.0,99,-99.99,,,0.00,Acu-Link.com,2013-06-27 04:29:00,
2013-06-27 00:44:00,68.2,67.9,29.64,East,90,1.1,-999.0,99,-99.99,,,0.00,Acu-Link.com,2013-06-27 04:44:00,
2013-06-27 01:00:00,68.2,67.9,29.64,East,90,0.0,-999.0,99,-99.99,,,0.00,Acu-Link.com,2013-06-27 05:00:00,
2013-06-27 01:15:00,68.2,67.9,29.63,ESE,112,0.0,-999.0,99,-99.99,,,0.00,Acu-Link.com,2013-06-27 05:15:00,
2013-06-27 01:30:00,68.2,67.9,29.64,East,90,0.0,-999.0,99,-99.99,,,0.00,Acu-Link.com,2013-06-27 05:30:00,
2013-06-27 01:45:00,68.2,67.9,29.65,WNW,292,0.0,-999.0,99,-99.99,,,0.00,Acu-Link.com,2013-06-27 05:45:00,
2013-06-27 02:00:00,68.0,67.7,29.64,WNW,292,0.0,-999.0,99,-99.99,,,0.00,Acu-Link.com,2013-06-27 06:00:00,
2013-06-27 02:16:00,67.8,67.5,29.63,NW,315,0.0,-999.0,99,-99.99,,,0.00,Acu-Link.com,2013-06-27 06:16:00,
2013-06-27 02:31:00,67.6,67.3,29.62,NE,45,0.0,-999.0,99,-99.99,,,0.00,Acu-Link.com,2013-06-27 06:31:00,
2013-06-27 02:46:00,67.6,67.3,29.62,West,270,0.0,-999.0,99,-99.99,,,0.00,Acu-Link.com,2013-06-27 06:46:00,
2013-06-27 03:01:00,67.6,67.3,29.62,ESE,112,0.0,-999.0,99,-99.99,,,0.00,Acu-Link.com,2013-06-27 07:01:00,
2013-06-27 03:16:00,67.6,67.3,29.62,ESE,112,0.0,-999.0,99,-99.99,,,0.00,Acu-Link.com,2013-06-27 07:16:00,
2013-06-27 03:32:00,67.8,67.5,29.62,ESE,112,0.0,-999.0,99,-99.99,,,0.00,Acu-Link.com,2013-06-27 07:32:00,
2013-06-27 03:47:00,67.8,67.5,29.61,West,270,0.0,-999.0,99,-99.99,,,0.00,Acu-Link.com,2013-06-27 07:47:00,
2013-06-27 04:02:00,67.8,67.5,29.61,NNE,22,2.2,-999.0,99,-99.99,,,0.00,Acu-Link.com,2013-06-27 08:02:00,
2013-06-27 04:18:00,67.6,67.3,29.61,ESE,112,2.2,-999.0,99,-99.99,,,0.00,Acu-Link.com,2013-06-27 08:18:00,
2013-06-27 04:33:00,67.6,67.3,29.61,East,90,2.7,-999.0,99,-99.99,,,0.00,Acu-Link.com,2013-06-27 08:33:00,
2013-06-27 04:48:00,67.3,67.0,29.61,East,90,3.1,-999.0,99,-99.99,,,0.00,Acu-Link.com,2013-06-27 08:48:00,
2013-06-27 05:03:00,67.1,66.8,29.60,East,90,0.0,-999.0,99,-99.99,,,0.00,Acu-Link.com,2013-06-27 09:03:00,
2013-06-27 05:18:00,66.9,66.6,29.60,East,90,2.7,-999.0,99,-99.99,,,0.00,Acu-Link.com,2013-06-27 09:18:00,
2013-06-27 05:34:00,65.7,65.4,29.62,ESE,112,2.2,-999.0,99,-99.99,,,0.00,Acu-Link.com,2013-06-27 09:34:00,
2013-06-27 05:49:00,64.9,64.7,29.64,ESE,112,1.6,-999.0,99,-99.99,,,0.00,Acu-Link.com,2013-06-27 09:49:00,
2013-06-27 06:04:00,64.2,63.9,29.64,NE,45,2.7,-999.0,99,-99.99,,,0.01,Acu-Link.com,2013-06-27 10:04:00,
2013-06-27 06:19:00,64.0,63.8,29.65,South,180,2.7,-999.0,99,-99.99,,,0.01,Acu-Link.com,2013-06-27 10:19:00,
2013-06-27 06:34:00,63.9,63.6,29.66,NE,45,1.6,-999.0,99,-99.99,,,0.02,Acu-Link.com,2013-06-27 10:34:00,
2013-06-27 06:50:00,63.7,63.4,29.66,East,90,3.8,-999.0,99,-99.99,,,0.02,Acu-Link.com,2013-06-27 10:50:00,
2013-06-27 07:05:00,63.7,63.4,29.66,East,90,2.2,-999.0,99,-99.99,,,0.04,Acu-Link.com,2013-06-27 11:05:00,
2013-06-27 07:20:00,63.3,63.0,29.65,ENE,67,3.1,-999.0,99,-99.99,,,0.04,Acu-Link.com,2013-06-27 11:20:00,
2013-06-27 07:35:00,63.3,63.0,29.66,East,90,3.8,-999.0,99,-99.99,,,0.05,Acu-Link.com,2013-06-27 11:35:00,
2013-06-27 07:50:00,63.3,63.0,29.66,East,90,2.7,-999.0,99,-99.99,,,0.05,Acu-Link.com,2013-06-27 11:50:00,
2013-06-27 08:06:00,63.3,63.0,29.66,ESE,112,2.2,-999.0,99,-99.99,,,0.05,Acu-Link.com,2013-06-27 12:06:00,
2013-06-27 08:21:00,63.7,63.4,29.65,ESE,112,1.6,-999.0,99,-99.99,,,0.05,Acu-Link.com,2013-06-27 12:21:00,
2013-06-27 08:36:00,63.7,63.4,29.65,ENE,67,2.2,-999.0,99,-99.99,,,0.05,Acu-Link.com,2013-06-27 12:36:00,
2013-06-27 08:51:00,63.9,63.6,29.65,ENE,67,1.6,-999.0,99,-99.99,,,0.05,Acu-Link.com,2013-06-27 12:51:00,
2013-06-27 09:06:00,64.0,63.8,29.65,SSE,157,2.2,-999.0,99,-99.99,,,0.05,Acu-Link.com,2013-06-27 13:06:00,
2013-06-27 09:22:00,64.2,63.9,29.64,ESE,112,1.6,-999.0,99,-99.99,,,0.05,Acu-Link.com,2013-06-27 13:22:00,
2013-06-27 09:37:00,64.9,64.7,29.64,ESE,112,2.7,-999.0,99,-99.99,,,0.05,Acu-Link.com,2013-06-27 13:37:00,
2013-06-27 09:52:00,65.3,65.0,29.64,ENE,67,2.7,-999.0,99,-99.99,,,0.05,Acu-Link.com,2013-06-27 13:52:00,
2013-06-27 10:07:00,65.7,65.4,29.64,East,90,1.6,-999.0,99,-99.99,,,0.05,Acu-Link.com,2013-06-27 14:07:00,
2013-06-27 10:23:00,65.8,65.6,29.64,ESE,112,0.0,-999.0,99,-99.99,,,0.05,Acu-Link.com,2013-06-27 14:23:00,
2013-06-27 10:38:00,66.4,66.1,29.64,East,90,2.7,-999.0,99,-99.99,,,0.05,Acu-Link.com,2013-06-27 14:38:00,
2013-06-27 10:53:00,66.7,66.4,29.64,SE,135,0.0,-999.0,99,-99.99,,,0.05,Acu-Link.com,2013-06-27 14:53:00,
2013-06-27 11:08:00,67.5,67.2,29.64,ESE,112,2.2,-999.0,99,-99.99,,,0.05,Acu-Link.com,2013-06-27 15:08:00,
2013-06-27 11:23:00,67.3,67.0,29.64,ESE,112,1.6,-999.0,99,-99.99,,,0.05,Acu-Link.com,2013-06-27 15:23:00,
2013-06-27 11:39:00,68.4,68.1,29.64,NNE,22,1.6,-999.0,99,-99.99,,,0.05,Acu-Link.com,2013-06-27 15:39:00,
2013-06-27 11:54:00,68.9,68.3,29.64,West,270,0.0,-999.0,98,-99.99,,,0.05,Acu-Link.com,2013-06-27 15:54:00,
2013-06-27 12:09:00,70.2,69.0,29.64,ESE,112,2.7,-999.0,96,-99.99,,,0.05,Acu-Link.com,2013-06-27 16:09:00,
2013-06-27 12:24:00,70.3,69.1,29.63,WSW,247,0.0,-999.0,96,-99.99,,,0.05,Acu-Link.com,2013-06-27 16:24:00,
2013-06-27 12:40:00,71.8,69.3,29.62,South,180,1.1,-999.0,92,-99.99,,,0.05,Acu-Link.com,2013-06-27 16:40:00,
2013-06-27 12:55:00,71.2,69.7,29.62,ESE,112,0.0,-999.0,95,-99.99,,,0.05,Acu-Link.com,2013-06-27 16:55:00,
2013-06-27 13:10:00,71.1,69.2,29.61,ENE,67,2.7,-999.0,94,-99.99,,,0.05,Acu-Link.com,2013-06-27 17:10:00,
2013-06-27 13:25:00,70.7,69.2,29.61,ENE,67,0.0,-999.0,95,-99.99,,,0.05,Acu-Link.com,2013-06-27 17:25:00,
2013-06-27 13:40:00,71.1,69.9,29.61,East,90,0.0,-999.0,96,-99.99,,,0.05,Acu-Link.com,2013-06-27 17:40:00,
2013-06-27 13:56:00,71.1,69.9,29.61,NNE,22,1.6,-999.0,96,-99.99,,,0.05,Acu-Link.com,2013-06-27 17:56:00,
2013-06-27 14:11:00,70.5,69.6,29.61,SE,135,1.6,-999.0,97,-99.99,,,0.05,Acu-Link.com,2013-06-27 18:11:00,
2013-06-27 14:26:00,71.1,69.9,29.61,NE,45,2.2,-999.0,96,-99.99,,,0.05,Acu-Link.com,2013-06-27 18:26:00,
2013-06-27 14:41:00,70.7,69.5,29.61,ESE,112,2.2,-999.0,96,-99.99,,,0.05,Acu-Link.com,2013-06-27 18:41:00,
2013-06-27 14:56:00,69.4,69.1,29.61,East,90,3.1,-999.0,99,-99.99,,,0.05,Acu-Link.com,2013-06-27 18:56:00,
2013-06-27 15:12:00,69.3,69.0,29.60,North,0,2.2,-999.0,99,-99.99,,,0.07,Acu-Link.com,2013-06-27 19:12:00,
2013-06-27 15:27:00,69.3,69.0,29.60,East,90,2.2,-999.0,99,-99.99,,,0.07,Acu-Link.com,2013-06-27 19:27:00,
2013-06-27 15:42:00,68.9,68.6,29.60,NNE,22,2.2,-999.0,99,-99.99,,,0.07,Acu-Link.com,2013-06-27 19:42:00,
2013-06-27 15:57:00,69.1,68.8,29.59,East,90,2.7,-999.0,99,-99.99,,,0.08,Acu-Link.com,2013-06-27 19:57:00,
2013-06-27 16:13:00,68.7,68.4,29.59,NE,45,2.7,-999.0,99,-99.99,,,0.08,Acu-Link.com,2013-06-27 20:13:00,
2013-06-27 16:28:00,68.5,68.2,29.59,East,90,3.8,-999.0,99,-99.99,,,0.08,Acu-Link.com,2013-06-27 20:28:00,
2013-06-27 16:58:00,68.0,67.7,29.59,ENE,67,2.2,-999.0,99,-99.99,,,0.08,Acu-Link.com,2013-06-27 20:58:00,
2013-06-27 17:13:00,67.5,67.2,29.58,NE,45,2.7,-999.0,99,-99.99,,,0.08,Acu-Link.com,2013-06-27 21:13:00,
2013-06-27 17:29:00,67.1,66.8,29.58,East,90,2.7,-999.0,99,-99.99,,,0.08,Acu-Link.com,2013-06-27 21:29:00,
2013-06-27 17:44:00,66.9,66.6,29.58,ESE,112,3.1,-999.0,99,-99.99,,,0.08,Acu-Link.com,2013-06-27 21:44:00,
2013-06-27 17:59:00,66.6,66.3,29.59,ENE,67,5.1,-999.0,99,-99.99,,,0.08,Acu-Link.com,2013-06-27 21:59:00,
2013-06-27 18:14:00,66.0,65.7,29.58,ESE,112,3.8,-999.0,99,-99.99,,,0.08,Acu-Link.com,2013-06-27 22:14:00,
2013-06-27 18:29:00,66.0,65.7,29.59,ENE,67,4.3,-999.0,99,-99.99,,,0.08,Acu-Link.com,2013-06-27 22:29:00,
2013-06-27 18:45:00,65.5,65.2,29.58,ESE,112,3.1,-999.0,99,-99.99,,,0.08,Acu-Link.com,2013-06-27 22:45:00,
2013-06-27 19:00:00,64.9,64.7,29.58,ESE,112,4.7,-999.0,99,-99.99,,,0.08,Acu-Link.com,2013-06-27 23:00:00,
2013-06-27 19:15:00,64.8,64.5,29.58,ENE,67,3.1,-999.0,99,-99.99,,,0.08,Acu-Link.com,2013-06-27 23:15:00,
2013-06-27 19:30:00,64.6,64.3,29.58,ENE,67,3.1,-999.0,99,-99.99,,,0.08,Acu-Link.com,2013-06-27 23:30:00,
2013-06-27 19:45:00,64.6,64.3,29.58,NE,45,3.1,-999.0,99,-99.99,,,0.08,Acu-Link.com,2013-06-27 23:45:00,
2013-06-27 20:01:00,64.4,64.1,29.59,ESE,112,2.7,-999.0,99,-99.99,,,0.08,Acu-Link.com,2013-06-28 00:01:00,
2013-06-27 20:16:00,64.2,63.9,29.59,ESE,112,2.7,-999.0,99,-99.99,,,0.08,Acu-Link.com,2013-06-28 00:16:00,
2013-06-27 20:31:00,64.2,63.9,29.59,East,90,3.1,-999.0,99,-99.99,,,0.08,Acu-Link.com,2013-06-28 00:31:00,
2013-06-27 20:46:00,64.2,63.9,29.59,ESE,112,2.2,-999.0,99,-99.99,,,0.08,Acu-Link.com,2013-06-28 00:46:00,
2013-06-27 21:01:00,64.2,63.9,29.59,ENE,67,3.1,-999.0,99,-99.99,,,0.08,Acu-Link.com,2013-06-28 01:01:00,
2013-06-27 21:17:00,63.9,63.6,29.58,East,90,2.2,-999.0,99,-99.99,,,0.09,Acu-Link.com,2013-06-28 01:17:00,
2013-06-27 21:32:00,63.9,63.6,29.58,East,90,2.7,-999.0,99,-99.99,,,0.09,Acu-Link.com,2013-06-28 01:32:00,
2013-06-27 21:47:00,63.9,63.6,29.59,East,90,2.2,-999.0,99,-99.99,,,0.09,Acu-Link.com,2013-06-28 01:47:00,
2013-06-27 22:02:00,63.7,63.4,29.59,ESE,112,2.7,-999.0,99,-99.99,,,0.09,Acu-Link.com,2013-06-28 02:02:00,
2013-06-27 22:18:00,63.7,63.4,29.58,NE,45,2.2,-999.0,99,-99.99,,,0.09,Acu-Link.com,2013-06-28 02:18:00,
2013-06-27 22:33:00,63.5,63.2,29.58,NNE,22,2.2,-999.0,99,-99.99,,,0.09,Acu-Link.com,2013-06-28 02:33:00,
2013-06-27 22:48:00,63.5,63.2,29.57,ESE,112,2.2,-999.0,99,-99.99,,,0.09,Acu-Link.com,2013-06-28 02:48:00,
2013-06-27 23:03:00,63.5,63.2,29.57,ENE,67,3.1,-999.0,99,-99.99,,,0.09,Acu-Link.com,2013-06-28 03:03:00,
2013-06-27 23:18:00,63.3,63.0,29.56,East,90,3.1,-999.0,99,-99.99,,,0.09,Acu-Link.com,2013-06-28 03:18:00,
2013-06-27 23:34:00,63.3,63.0,29.55,East,90,3.1,-999.0,99,-99.99,,,0.09,Acu-Link.com,2013-06-28 03:34:00,
2013-06-27 23:49:00,63.1,62.9,29.55,ESE,112,3.8,-999.0,99,-99.99,,,0.09,Acu-Link.com,2013-06-28 03:49:00,